Weather in Karolino-Bugaz

Ukraine / Odesa District     46°09′03″N   30°32′18″E
temp.,
°C
wind,
m/s
gust,
m/s
humid.,
%
clouds,
%
prec.,
mm/h
press.,
hPa
HPBL,
m
10 may, mon
mon1000:00+10wsw46680 0.0 1027137
03:00+9wsw46724 0.0 1027119
06:00+9wnw23700 0.0 102671
09:00+13w11530 0.0 1027301
12:00+15se32470 0.0 10261182
15:00+15s43492 0.0 1025779
18:00+15ssw56542 0.0 1023334
21:00+12sw57685 0.0 1023142
11 may, tue
tue1100:00+11w46661 0.0 1022140
03:00+10nnw45694 0.0 1022111
06:00+10nne46620 0.0 1020117
09:00+14n575175 0.0 1020609
12:00+17nnw67499 0.0 1019765
15:00+19nnw565370 0.0 1017734
18:00+19nnw465938 0.0 1016837
21:00+15n458364 0.4 101567
12 may, wed
wed1200:00+14e479193 0.3 1015205
03:00+13ene6789100 0.3 1013327
06:00+11ene7877100 0.0 1013432
09:00+11ene5677100 0.3 1014535
12:00+11e4474100 0.2 1014496
15:00+12se3369100 0.2 1013308
18:00+13ese346479 0.0 1012323
21:00+11ese4569100 0.0 1012180
13 may, thu
thu1300:00+12ese4567100 0.0 1012230
03:00+12ese467393 0.0 1011178
06:00+12ese5781100 0.0 1010248
09:00+14se687996 0.0 1010531
12:00+16ese687197 0.0 1009614
15:00+16se5774100 0.0 1008527
18:00+15sse5671100 0.0 1008462
21:00+13sse348778 0.0 1008101
14 may, fri
fri1400:00+13ssw468993 0.0 1008169
03:00+13ssw2289100 0.0 100845
06:00+13ssw238887 0.0 100857
09:00+16s347825 0.0 1009289
12:00+18sse4471100 0.0 1009452
15:00+18sse667162 0.0 1010362
18:00+17s577347 0.3 1009224
21:00+15sw338322 0.6 101041